Theta_e
313 313 313 311 309 307 308 306 298 309 313 303 303 299 296 294 297 298 297 296 295 293 294 292 293 291 294 299 298 292 297 294 290 292 297 299 298 300 303 298 299 302 302 303
312 313 312 310 309 307 308 303 303 310 311 298 297 297 296 296 296 297 296 294 296 297 294 290 292 293 296 298 297 294 297 292 287 289 293 297 294 298 301 303 304 300 299 302
312 312 312 310 309 308 308 304 300 304 304 300 294 291 293 293 298 297 298 297 298 295 293 295 291 291 295 298 297 299 296 292 289 286 290 293 292 295 299 301 297 299 301 303
312 313 313 311 310 308 308 304 298 299 292 294 294 294 293 290 290 296 297 295 294 293 290 292 290 292 293 296 298 299 296 290 291 292 292 292 291 291 294 295 298 296 301 304
312 313 313 312 311 309 309 301 299 298 294 294 294 293 293 291 291 291 291 292 293 293 290 293 290 292 293 292 297 295 296 290 291 289 292 292 289 291 292 294 296 298 300 302
312 312 313 312 311 309 306 303 300 299 293 293 293 292 291 291 293 294 295 294 291 289 292 295 297 298 298 297 295 294 293 292 289 285 290 289 286 290 292 294 298 299 297 305
312 312 312 313 311 310 309 304 302 297 294 296 293 294 295 292 295 292 295 296 293 297 302 301 300 299 298 298 297 298 293 291 291 286 288 280 290 296 297 295 297 302 303 307
312 313 313 313 312 311 312 309 303 299 292 294 294 294 294 295 295 294 295 296 299 302 298 291 290 290 290 293 296 294 296 292 286 284 284 288 291 295 298 295 296 302 306 309
312 312 313 313 312 311 314 313 311 301 295 296 297 294 296 292 292 295 295 301 304 300 294 290 285 284 287 285 289 297 294 295 288 287 280 279 291 292 295 303 294 310 312 314
312 313 313 313 313 311 313 312 313 303 300 304 301 295 293 297 294 291 296 298 296 298 290 287 287 285 287 283 284 286 289 290 284 284 283 286 293 294 296 289 299 309 309 311
312 313 313 313 313 313 312 311 313 307 302 303 304 303 300 297 297 291 295 297 296 292 288 288 288 286 288 285 288 287 286 284 284 285 282 279 295 292 290 302 304 303 304 310
313 313 314 313 313 313 311 308 313 312 302 305 309 308 309 306 305 299 300 297 296 294 289 290 289 287 290 288 285 289 284 288 286 286 288 295 293 293 302 303 302 302 304 309
313 313 314 313 313 313 312 312 311 309 306 307 307 305 309 311 309 310 299 301 303 299 300 293 290 286 289 286 288 287 289 291 287 286 291 290 296 299 303 304 302 304 306 306
312 313 313 313 313 314 313 312 314 310 307 302 303 310 307 310 310 308 307 305 305 304 300 295 292 289 293 289 289 287 289 291 288 288 289 293 298 298 302 303 304 304 305 306
311 313 312 313 313 313 315 317 317 316 306 302 304 307 309 309 310 307 307 306 304 303 299 296 291 292 290 293 293 289 293 290 287 287 292 293 293 300 303 302 301 303 304 305
311 312 312 313 313 312 313 307 314 316 314 305 300 307 307 307 309 308 306 306 305 304 301 298 299 298 293 290 288 295 297 297 296 292 297 299 301 301 303 302 303 304 305 307
310 312 311 311 312 315 309 308 311 310 314 306 303 305 307 305 305 306 308 309 306 303 303 299 299 298 298 293 287 297 299 298 298 298 297 295 298 296 300 304 304 305 305 305
309 311 310 311 311 309 310 314 308 311 309 308 301 306 306 308 304 300 304 306 307 303 302 302 297 300 298 290 296 300 300 299 298 298 298 298 299 299 299 301 302 303 303 305
310 311 311 313 311 309 310 311 309 311 306 303 301 300 300 308 307 304 304 306 302 305 301 300 300 294 287 295 297 299 300 298 297 298 298 298 297 296 296 298 297 297 298 301
310 312 312 309 311 311 311 308 306 305 306 304 300 305 302 307 304 303 301 301 297 294 300 303 293 291 298 300 301 303 302 301 299 296 295 295 296 296 296 296 298 298 298 299
314 313 314 314 311 309 306 306 305 307 304 307 306 304 304 310 300 299 301 297 299 289 297 297 292 290 299 301 301 304 305 303 301 301 300 299 298 297 297 298 299 298 299 298
313 314 315 315 308 308 304 304 305 303 300 306 304 306 307 307 309 301 301 296 298 290 303 297 288 298 302 302 301 302 303 303 302 302 301 301 300 300 300 300 299 298 299 299
317 314 312 310 309 297 297 293 299 299 304 305 305 303 307 305 305 300 299 295 295 302 296 288 295 301 302 302 302 301 304 305 303 302 302 303 302 303 302 301 301 302 299 300
313 311 295 303 301 303 304 303 303 305 306 305 305 308 303 304 303 304 295 299 299 293 289 288 296 302 304 303 303 302 301 302 303 303 303 303 303 303 304 303 303 302 301 299
311 311 297 303 308 308 309 309 307 308 309 306 305 305 306 301 299 300 297 293 290 293 293 296 301 304 305 305 303 302 302 302 303 304 303 303 303 303 303 304 303 303 302 302
313 311 307 309 307 306 308 309 308 312 310 309 306 299 298 296 299 294 292 289 288 293 300 301 303 304 305 305 304 304 302 303 303 304 303 303 303 301 302 302 302 303 303 302
310 308 313 311 310 308 309 310 309 312 306 300 300 296 294 298 292 290 292 292 296 299 301 302 305 305 304 304 304 305 304 303 303 303 303 303 303 303 301 300 302 302 303 304
Wind_Speed
15 16 16 17 17 23 8 5 2 9 9 2 2 4 6 3 5 3 7 6 12 12 10 11 11 9 5 7 7 4 1 5 8 11 10 11 11 16 18 18 23 19 20 9
16 16 15 15 14 12 8 5 4 7 11 3 5 6 4 3 8 5 6 7 5 9 11 8 9 6 2 9 9 3 4 4 7 9 18 17 12 19 15 16 21 22 20 18
16 15 14 13 12 10 7 4 1 5 7 10 8 6 9 7 2 6 6 9 10 12 12 12 6 8 6 10 12 6 3 11 12 13 15 12 10 13 15 17 18 19 22 20
15 15 13 11 11 9 6 4 6 5 5 7 5 3 4 4 7 5 7 5 8 9 8 14 16 12 11 12 12 11 9 11 15 17 16 16 18 19 19 20 18 23 20 24
15 14 11 9 10 13 2 4 3 3 4 4 5 5 6 7 4 3 6 8 10 7 7 15 7 10 15 15 14 17 15 13 13 17 16 19 24 23 26 25 25 25 24 29
13 12 11 8 8 9 4 4 2 2 0 2 3 3 2 5 10 4 9 13 8 9 12 13 17 17 14 12 13 17 15 10 12 17 18 21 24 21 27 30 27 27 26 24
12 11 10 6 3 4 4 2 1 2 3 3 4 7 8 9 8 8 10 7 5 2 11 11 14 18 19 21 19 18 14 14 11 15 16 19 21 24 27 31 30 28 26 27
11 10 8 5 0 4 1 2 1 1 2 4 3 8 8 9 6 7 5 5 7 11 14 7 8 12 12 23 26 24 19 12 8 11 13 18 27 24 22 30 29 24 30 30
10 8 6 4 2 7 2 2 2 0 1 2 4 5 7 5 8 7 3 7 9 5 3 3 5 4 4 4 5 19 23 19 11 10 10 15 8 18 30 36 19 17 13 17
9 7 5 3 3 7 4 3 3 1 2 1 3 2 3 4 3 4 8 9 3 3 1 3 3 3 2 4 5 5 14 15 15 15 14 14 14 19 23 12 10 12 3 6
8 6 3 2 2 8 4 4 4 2 2 5 2 0 5 3 3 3 6 7 3 2 3 3 3 3 2 4 2 3 7 6 7 9 10 16 8 16 8 4 11 7 2 6
8 6 4 1 3 7 5 3 3 2 2 5 4 6 6 5 5 3 4 6 4 2 3 2 3 3 3 7 3 1 3 4 3 6 4 4 13 18 11 9 4 3 7 10
7 5 4 1 5 7 4 0 4 4 4 5 4 4 4 2 3 2 4 2 7 2 1 2 2 3 3 4 4 4 2 7 5 4 6 10 10 11 12 3 3 5 8 11
4 4 2 2 4 8 6 2 2 3 4 5 7 5 4 1 4 0 6 10 6 6 2 3 2 3 5 3 3 2 3 7 7 5 5 13 7 12 11 9 8 9 8 11
4 4 1 3 4 6 7 3 2 2 5 6 3 6 3 2 3 4 4 7 6 3 1 2 3 3 3 3 4 1 7 6 5 3 12 5 11 12 12 8 10 9 9 12
4 3 1 5 5 7 4 3 4 3 3 5 4 4 4 1 4 5 5 4 4 3 2 1 2 4 4 4 3 12 15 12 12 8 14 10 14 12 16 13 10 7 9 12
3 3 3 3 6 6 4 7 5 0 3 4 4 2 3 0 3 2 4 2 2 4 2 5 2 3 3 3 5 17 16 15 15 15 14 14 17 14 18 15 12 9 10 10
3 3 3 5 6 6 5 4 4 4 5 3 4 1 5 1 1 1 3 4 2 3 3 3 6 2 4 3 15 16 18 15 18 16 14 11 14 16 17 17 16 16 15 14
3 3 4 4 5 2 2 7 5 1 4 3 2 3 5 3 1 1 3 3 1 1 2 3 4 4 3 8 12 13 15 17 17 16 16 17 18 17 18 19 20 17 16 15
4 6 5 4 2 10 7 3 3 4 4 3 3 1 2 3 3 1 1 2 1 2 2 2 2 3 3 7 9 8 10 13 15 16 19 21 21 19 18 16 13 14 14 15
4 4 1 5 7 3 4 3 4 3 4 5 4 4 6 2 3 1 2 2 1 1 1 2 1 3 5 6 6 6 7 8 11 13 14 14 15 14 17 18 18 16 15 14
4 3 1 3 4 5 5 1 2 4 3 1 5 5 2 0 1 2 2 2 3 2 1 1 2 3 6 6 6 6 4 5 6 8 10 12 14 14 14 15 15 14 14 13
3 4 4 3 3 2 1 2 4 4 5 3 4 4 2 2 2 2 3 5 1 2 2 2 4 4 4 5 5 6 3 1 2 4 6 8 10 10 12 13 14 16 14 13
4 4 4 4 2 4 4 7 7 6 5 6 5 1 3 4 5 3 4 3 3 2 1 3 1 4 2 4 5 6 7 4 3 3 5 6 9 10 10 11 11 12 15 14
4 3 3 4 4 6 4 4 5 3 3 5 4 4 3 3 4 3 1 3 1 3 3 4 7 6 3 2 5 6 7 7 5 4 5 7 8 9 10 9 10 9 10 13
4 4 6 4 7 8 5 4 6 2 2 1 1 4 2 4 2 4 5 5 4 3 4 5 4 4 3 4 5 5 5 6 6 6 6 6 7 8 8 8 9 8 8 10
4 5 4 6 8 7 7 7 7 2 5 3 3 6 2 5 5 5 1 3 6 5 5 4 4 3 4 5 5 4 2 4 4 4 5 7 5 6 8 8 8 8 8 6
Wind_Direction
341 338 342 343 345 335 315 301 227 7 317 222 349 18 355 2 298 230 277 284 278 277 278 264 250 245 256 157 179 240 102 319 262 253 269 284 287 283 251 233 224 237 266 254
342 339 340 344 344 355 316 352 357 29 323 4 48 31 33 322 309 339 321 290 298 293 272 260 244 221 222 176 209 226 174 206 274 222 209 224 237 244 241 266 275 255 229 225
341 338 338 340 340 344 302 293 341 88 71 54 47 360 23 9 330 298 313 288 285 279 261 249 246 227 194 210 231 105 237 267 249 281 324 348 287 280 283 249 251 251 247 262
338 339 339 338 335 336 286 344 65 4 21 54 46 108 347 332 7 323 305 281 272 265 261 255 238 228 243 212 219 200 238 239 248 255 264 276 270 270 259 256 257 258 267 255
339 341 343 347 336 324 315 6 24 52 84 332 327 38 6 339 349 280 301 266 319 303 255 262 269 285 235 234 219 220 224 255 264 269 261 257 258 260 264 250 249 255 257 266
342 347 355 1 336 317 45 54 46 314 170 298 324 37 281 291 319 295 276 302 297 270 260 251 262 282 256 250 257 223 212 239 245 256 260 253 247 250 258 258 239 242 243 243
342 345 349 1 340 349 48 78 136 236 95 33 360 325 328 348 332 287 289 288 257 298 285 287 252 245 239 240 237 243 222 223 246 259 275 263 260 253 259 253 241 235 242 248
342 342 352 4 342 164 125 117 206 181 20 344 347 343 336 322 324 314 310 308 293 292 285 276 263 249 246 241 237 222 224 219 245 242 248 264 278 271 266 234 230 228 237 225
344 342 358 19 118 165 204 136 111 16 304 79 310 328 331 330 347 332 314 339 339 323 305 260 267 274 288 292 259 212 214 199 214 242 252 260 272 322 319 305 206 198 230 243
345 342 26 32 119 170 245 102 158 115 291 11 323 339 318 290 281 290 281 336 329 52 285 258 286 308 9 248 239 187 197 205 214 232 252 272 290 303 302 242 154 150 152 284
351 359 31 14 159 173 240 97 170 277 338 291 335 198 290 283 253 288 316 299 98 304 284 299 345 286 309 272 58 224 185 184 210 232 244 254 28 306 228 23 80 89 160 111
357 6 23 105 149 171 236 135 151 190 237 337 328 304 300 251 278 298 293 310 9 326 304 337 298 303 313 314 43 50 200 222 287 224 231 351 297 276 321 358 81 57 70 68
0 7 30 345 171 171 265 83 125 222 273 214 234 54 99 232 266 277 293 17 356 102 198 294 290 318 320 332 26 308 213 220 242 266 211 276 266 300 301 333 16 35 49 61
346 343 306 249 199 182 221 232 159 248 290 287 110 144 145 56 82 233 279 289 294 262 204 323 331 315 7 322 295 284 273 291 282 258 269 317 233 315 351 352 32 36 42 45
341 344 257 205 213 197 254 253 218 292 307 330 347 124 133 159 316 350 334 302 288 302 230 17 11 309 313 293 293 353 354 351 339 308 313 316 281 320 347 8 29 27 24 44
327 340 224 198 194 203 251 239 176 187 269 271 283 108 215 169 280 339 335 349 323 9 13 50 353 75 322 337 336 358 21 21 4 347 333 349 349 13 4 21 27 40 42 49
300 307 256 236 190 235 280 2 27 113 243 256 275 231 142 169 278 332 276 284 16 334 14 12 36 357 308 341 350 2 16 22 14 8 352 7 7 4 2 21 48 54 53 36
287 286 280 172 177 263 238 129 158 260 264 244 275 14 172 182 281 294 295 277 223 47 7 342 19 335 18 13 360 6 13 14 16 23 8 15 15 22 17 20 22 37 38 36
259 221 163 181 224 232 70 122 178 313 291 278 248 294 2 165 117 101 251 278 313 168 56 15 345 355 25 338 348 9 16 18 15 23 18 26 27 25 19 23 22 28 24 22
187 202 211 196 122 110 132 175 221 205 172 230 253 329 306 228 175 173 242 325 17 327 48 186 58 280 53 7 357 8 23 20 17 26 26 23 22 24 30 25 19 26 21 19
213 223 267 78 120 194 211 246 229 146 226 186 223 221 308 135 282 141 190 151 254 323 304 321 346 314 14 12 21 10 18 27 26 30 36 37 27 25 31 31 29 20 19 24
15 356 100 143 211 216 256 258 198 227 287 158 293 11 266 296 341 266 192 175 211 230 126 321 323 288 35 7 8 11 12 16 26 25 29 36 36 31 32 24 36 31 31 15
197 222 225 212 184 313 210 273 288 300 340 345 295 308 141 168 250 225 238 233 51 138 186 212 239 22 9 12 3 4 359 273 346 13 27 27 36 41 35 35 27 36 36 35
244 236 295 251 215 250 318 315 324 330 292 311 320 176 213 186 217 198 250 52 226 269 36 256 46 44 356 0 0 340 356 351 314 338 357 10 20 20 27 32 36 30 35 42
259 248 252 234 317 282 274 304 284 252 279 297 251 237 237 189 231 217 111 205 10 215 259 352 36 14 279 323 346 351 352 357 359 358 342 13 1 9 25 28 31 37 37 40
247 235 256 262 269 323 315 256 273 69 305 254 133 281 248 257 271 195 53 28 263 349 338 355 15 47 47 355 326 316 357 350 360 11 3 4 25 22 23 31 25 43 40 36
233 234 257 288 294 303 331 339 339 18 276 16 63 277 310 26 357 51 277 256 318 324 349 17 55 15 9 357 335 301 326 359 9 13 24 19 23 28 40 31 29 21 45 39